Regional Weather Roundup
Issued by NWS

Home | Current Version | Previous Version | Graphics & Text | Print | Product List | Glossary On
Versions: 1 2 3 4 5 6 7 8 9 10 11 12 13 14 15 16 17 18 19 20 21 22 23 24 25 26 27 28 29 30 31 32 33 34 35 36 37 38 39 40 41 42 43 44 45 46 47 48 49 50
000
ASUS45 KCYS 212010
RWRWY

WYOMING REGIONAL WEATHER ROUNDUP
NATIONAL WEATHER SERVICE CHEYENNE WY
200 PM MDT SAT APR 21 2018

NOTE:  "FAIR" INDICATES FEW OR NO CLOUDS BELOW 12,000 FEET
WITH NO SIGNIFICANT WEATHER AND/OR OBSTRUCTIONS TO VISIBILITY.

WYZ001-212100-
YELLOWSTONE NATIONAL PARK

CITY           SKY/WX    TMP DP  RH WIND       PRES   REMARKS
LK YELLOWSTONE   N/A     51  16  24 VRB6      30.20F
W YELLOWSTONE  NOT AVBL

$$
WYZ002>013-054>058-071-098>099-212100-
NORTHERN WYOMING

CITY           SKY/WX    TMP DP  RH WIND       PRES   REMARKS
JACKSON        FAIR      58  23  26 W12       30.16F
CODY           FAIR      66  25  21 VRB3      30.04F
GREYBULL         N/A    N/A N/A N/A MISG      30.01F
WORLAND        FAIR      65  31  28 W3        30.02F
SHERIDAN       FAIR      66  37  34 S6        30.02F
BUFFALO        FAIR      63  35  35 VRB7      30.06F
GILLETTE       FAIR      53  37  54 SE15      30.09F
HULETT         FAIR      54  34  47 SW12G17   30.12S
NEWCASTLE      FAIR      50  34  53 SE10      30.15F

$$
WYZ014>020-022>026-101>103-212100-
CENTRAL WYOMING

CITY           SKY/WX    TMP DP  RH WIND       PRES   REMARKS
BIG PINEY      FAIR      62  16  16 N18G26    30.16S
PINEDALE       FAIR      59  19  21 W14G30    30.15S
DUBOIS         FAIR      57  18  21 NW13G28   30.13R
LANDER         FAIR      63  31  30 VRB5      30.06F
RIVERTON       FAIR      61  30  31 VRB3      30.07F
CASPER         FAIR      55  39  54 SE6       30.08F
DOUGLAS        CLOUDY    51  37  58 E6        30.13F

$$
WYZ021-027>030-104>119-212100-
SOUTHERN WYOMING

CITY           SKY/WX    TMP DP  RH WIND       PRES   REMARKS
EVANSTON       FAIR      59  19  21 NW10G23   30.20S
KEMMERER       FAIR      59  16  18 NW16G24   30.19S
FORT BRIDGER   FAIR      63  18  18 W16G24    30.21S
ROCK SPRINGS   FAIR      60  19  20 W12G21    30.13F
DIXON          CLOUDY    51  32  49 CALM      30.18F
RAWLINS          N/A    N/A N/A N/A MISG      30.12F
SARATOGA       CLOUDY    45  34  65 CALM      30.16F
LARAMIE        CLOUDY    32  30  92 S5        30.16R WCI  27
CHEYENNE       CLOUDY    40  34  79 CALM      30.16S
TORRINGTON     CLOUDY    40  37  89 S3        30.17F
PINE BLUFFS    CLOUDY    41  34  75 NE3       30.18S

$$



USA.gov is the U.S. government's official web portal to all federal, state and local government web resources and services.